www.pogodaiklimat.ru

Погода и климат >> Архив погоды >> Россия >> Красноярский край >> Снежногорск


ПОГОДА в Снежногорске

  • Прогноз погоды в Снежногорске
  • Монитор погоды в Снежногорске

АРХИВ ПОГОДЫ в Снежногорске

Время (UTC), дата Ветер
(напр.,м/с)
 
Видим.   Явления Облачность Т
(С)
Тd
(С)
f
(%)
Тe
(С)
Тes
(С)
Комфортность P
(гПа)
Po
(гПа)
Тmin
(С)
Tmax
(С)
R
(мм)
R24
(мм)
S
(см)
06 19.05 В 3 20 км 8/0 2000 м
[Ac lent Ci sp]
+3.5 -4.7 55 0 +6 1010.6 999.0
09 19.05 В 3 20 км 9/8 600 м
[Sc Ac trans]
+5.1 -3.5 54 +2 +3 999.5 997.9
12 19.05 В 3 20 км 9/9 600 м
[Sc]
+4.5 -3.6 56 +1 +2 1008.5 996.9 +6.6
15 19.05 В 2 20 км 10/10 600 м
[Sc]
+2.5 -3.1 67 -0 -0 1007.8 996.2
18 19.05 В 2 20 км 10/10 600 м
[Sc]
+1.1 -1.8 81 -2 -2 1006.1 994.4
21 19.05 В 3 20 км 10/10 600 м
[Sc]
+1.4 -0.8 85 -3 -3 1004.0 992.4
00 20.05 СВ 3 20 км 10/10 600 м
[Sc]
+1.4 -0.5 87 -3 -3 1002.6 991.0 +0.6 133
03 20.05 СВ 4 20 км 10/10 600 м
[Sc]
+2.1 -2.9 69 -3 -3 1001.4 989.6
06 20.05 В 3 20 км 10/10 600 м
[Sc]
+2.5 -3.4 65 -1 -1 1000.4 988.8
09 20.05 В 2 20 км 10/10 600 м
[Sc]
+3.1 -3.7 61 +1 +1 1000.5 988.9
12 20.05 В 3 20 км 10/10 600 м
[Sc]
+1.5 -4.4 65 -2 -2 1001.5 989.9 +3.1
15 20.05 СВ 1 20 км 10/10 600 м
[Sc]
+1.5 -1.0 83 -0 -0 999.9 988.3
18 20.05 СВ 1 10 км слаб. дождь 10/0 2000 м
[As op]
+1.0 +0.2 94 -1 -1 998.8 987.2
21 20.05 СВ 1 1000 м в посл. час туман 10/10 2000 м
[Sc]
-1.0 -1.3 98 -3 -3 997.3 985.6
00 21.05 СВ 2 4000 м слаб. снег {дождь} 10/0 600 м
[As op]
+0.4 +0.4 100 -3 -3 996.0 984.5 -1.0 5 125
03 21.05 В 1 2000 м слаб. дождь 10/0
[As op]
+0.5 +0.5 100 -2 0 995.7 984.2
06 21.05 В 3 500 м слаб. дождь 10/0 600 м
[As op]
+1.0 +1.0 100 -4 -2 995.6 984.1
09 21.05 СВ 1 20 км {дождь, туман} 10/10 600 м
[Sc]
+3.0 +1.4 89 +1 +1 996.1 984.6
12 21.05 СВ 1 20 км {дождь, туман} 10/10 600 м
[Sc]
+2.1 -1.6 76 +1 +1 996.9 985.4 +3.1 2
15 21.05 СВ 2 20 км 10/10 600 м
[Sc]
+1.4 -1.1 83 -2 -2 996.8 985.3
18 21.05 СВ 2 20 км 10/10 600 м
[Sc]
+1.1 -1.2 85 -2 -2 966.1 984.6
21 21.05 штиль 0 20 км 10/10 600 м
[Sc]
+0.6 -1.1 88 -1 -1 995.8 984.3
00 22.05 СЗ 3 20 км 10/6 600 м
[Sc Ac und]
+0.5 -2.1 83 -4 -4 995.3 983.7 +0.5 120
03 22.05 СЗ 3 20 км 10/0 2000 м
[Ac trans Cs]
+1.5 -4.4 65 -2 +2 994.9 983.4
06 22.05 З 3 20 км 10/10 600 м
[Sc]
+1.7 -5.2 60 -2 -2 995.0 983.5
09 22.05 СЗ 4 20 км 10/8 600 м
[Sc Ci sp]
+0.7 -6.6 58 -4 -3 995.9 984.4
12 22.05 СЗ 5
{10}
20 км 9/4 600 м
[Sc Ac trans]
-0.9 -8.0 59 -7 -6 996.4 984.8 +1.9
15 22.05 СЗ 4 20 км 9/6 600 м
[Sc Ac trans]
-3.5 -8.3 69 -9 -9 997.1 985.3
18 22.05 СЗ 5
{10}
20 км 10/0 2000 м
[Ac und]
-5.1 -8.0 80 -12 -12 996.7 984.9
21 22.05 СЗ 3 20 км 10/0 2000 м
[Ac und]
-5.5 -7.6 85 -11 -11 997.1 985.2
00 23.05 СЗ 4 20 км 10/5 600 м
[Sc Ac und]
-5.4 -7.5 85 -12 -12 997.1 985.2 -5.6 116
03 23.05 З 5 20 км 10/0 2000 м
[Ac und]
-4.6 -8.9 72 -11 -10 996.9 985.1
06 23.05 З 6 20 км 9/0
[Ac lent]
-2.0 -7.8 64 -9 -8 997.3 985.6
09 23.05 СЗ 7
{11}
20 км 10/10 600 м
[Sc]
-1.0 -6.0 69 -8 -8 997.6 986.0
12 23.05 СЗ 7
{14}
4000 м слаб. ливневой снег 10/10 600 м
[Cb cap]
-3.0 -5.4 83 -11 -11 998.8 987.0 -3.0 5
15 23.05 СЗ 5 4000 м слаб. ливневой снег {метель} 10/10 600 м
[Cb cap]
-4.5 -6.1 89 -12 -12 1001.0 989.1
18 23.05 СЗ 5 4000 м слаб. ливневой снег {метель} 10/10 600 м
[Cb cap]
-4.5 -6.1 89 -12 -12 1001.0 989.1
21 23.05 З 4
{12}
4000 м слаб. ливневой снег 10/10 600 м
[Cb cap]
-5.1 -7.6 83 -11 -11 1003.0 991.1
00 24.05 З 5 4000 м слаб. ливневой снег {метель} 10/10 600 м
[Cb cap]
-5.2 -7.3 85 -12 -12 1004.8 992.9 -5.6 2 117
03 24.05 З 4 20 км в посл. час ливневой снег {метель} 10/10 600 м
[Cb cap]
-2.4 -6.8 72 -8 -8 1006.4 994.6
06 24.05 Ю 2 20 км {ливн. осадки, метель} 9/9 600 м
[Cb cap]
-0.6 -5.4 70 -4 -3 1007.9 996.2
09 24.05 ЮВ 4 20 км ясно +0.7 -5.8 62 -4 +1 1008.4 996.7
12 24.05 штиль 0 20 км 4/1 600 м
[Sc Ac trans Cc]
+2.0 -7.3 50 +2 +4 1008.7 997.0 +2.8 0.3
15 24.05 В 1 20 км 8/8 600 м
[Sc]
+0.7 -5.4 64 -1 -1 1007.9 996.2
18 24.05 В 3 20 км 3/3 600 м
[Sc]
-2.9 -6.0 79 -8 -8 1007.4 995.7
21 24.05 В 3 20 км 3/0
[Ci sp]
-3.2 -6.0 81 -8 -8 1005.8 994.0
00 25.05 В 5
{11}
20 км 9/3 600 м
[Sc Ac lent Ci fib]
-1.4 -4.7 78 -8 -7 1004.3 992.5 -3.3 115
03 25.05 ЮВ 3
{11}
20 км 10/10 600 м
[Sc]
+3.5 -3.9 58 0 0 1001.7 990.2
06 25.05 ЮВ 5
{12}
20 км в посл. час ливневой дождь 10/10 600 м
[Cb cap]
+4.0 -2.9 61 -1 -1 1000.7 989.2
09 25.05 Ю 3
{11}
20 км {ливн. осадки} 10/5 600 м
[Sc Ac und]
+3.6 -1.1 71 0 +1 1000.7 989.2
12 25.05 Ю 2 10 км слаб. дождь 10/0 600 м
[As op]
+2.5 +0.4 86 -1 -0 1000.8 989.3 +4.1 0.7
15 25.05 ЮВ 1 10 км слаб. дождь 10/0
[As op]
+1.9 +1.1 94 0 0 999.9 988.3
18 25.05 З 3 10 км слаб. дождь со снегом 10/0
[As op]
-0.4 -1.0 96 -5 -5 999.8 988.1
21 25.05 штиль 0 4000 м слаб. снег {дождь} 10/0
[As op]
-1.6 -2.1 96 -3 -3 1001.9 990.1
00 26.05 штиль 0 20 км {снег, дождь} 10/10 600 м
[Sc]
-1.5 -2.0 96 -3 -3 1003.7 991.9 -1.7 4 109

 

Местоположение метеостанции Снежногорск (Красноярский край, Россия): широта 68.10 долгота 87.77 высота над уровнем моря 94 м.

В архиве по умолчанию представлена погода в Снежногорске за последнюю неделю. Архивные данные за месяц целиком и за предыдущие месяцы, начиная с января 2011 года, Вы можете получить, выбрав интересующий диапазон дат из раскрывающегося списка и нажав кнопку "Ввод!".


*Определитесь, кто Вы:
робот инопланетянин человек

Внимание! Время в таблицах - всемирное. Для получения местного времени необходимо прибавить поправку, которая равна 7 ч.

Смотрите также архив погоды в соседних городах и на ближайших метеорологических станциях:

Погода в Горбиачине (Красноярский край, Россия) (69 км)
Погода в Игарке (Красноярский край, Россия) (86 км)
Погода в Потапово (Красноярский край, Россия) (89 км)
Погода в Светлогорске (Красноярский край, Россия) (131 км)
Погода в Норильске (Красноярский край, Россия) (138 км)
Погода в Курейке (Красноярский край, Россия) (183 км)
Погода в Советской Речке (Красноярский край, Россия) (221 км)
Погода в Туруханске (Красноярский край, Россия) (258 км)
Погода в Агате (Эвенкия, Россия) (278 км)
Погода в Карауле (Красноярский край, Россия) (286 км)

Пояснения к столбцам:

Ветер - указаны скорость ветра в м/с - средняя за 10 мин, порывы в срок и между сроками (в фигурных скобках) и направление, откуда дует ветер: С - северный, СВ - северо-восточный, В - восточный, ЮВ - юго-восточный, Ю - южный, ЮЗ - юго-западный, З - западный, СЗ - северо-западный.
Видимость - горизонтальная дальность видимости в метрах или километрах. При видимости от 1 до 10 км при отсутствии осадков обычно наблюдается дымка, при ухудшении видимости до 1 км и менее - туман. В сухую погоду видимость может ухудшаться дымом, пылью или мглою.
Явления - указаны атмосферные явления, наблюдавшиеся в срок или в последний час перед сроком; фигурными скобками обозначены явления, наблюдавшиеся между сроками (за 1-3 часа до срока); квадратными скобками обозначены град или гололедные отложения с указанием их диаметра в мм.
Облачность - указаны через наклонную черту общая и нижняя облачность в баллах и высота нижней границы облаков в метрах; квадратными скобками обозначены формы облаков: Ci - перистые, Cs - перисто-слоистые, Cc - перисто-кучевые, Ac - высококучевые, As - высокослоистые, Sc - слоисто-кучевые, Ns - слоисто-дождевые, Cu - кучевые, Cb - кучево-дождевые. Подробнее классификацию облаков см. в Атласе облаков (PDF).
T - Температура воздуха - температура, измеренная на высоте 2 м над землей.
Td - Температура точки росы - температура, при понижении до которой содержащийся в воздухе водяной пар достигнет насыщения.
f - Относительная влажность воздуха - влажноcть воздуха, измеренная на высоте 2 м над землей.
Te - Эффективная температура - температура, которую ощущает одетый по сезону человек в тени. Характеристика душности погоды. При расчете учитывается влияние влажности воздуха и скорости ветра на теплоощущения человека.
Tes - Эффективная температура на солнце - температура, которую ощущает человек, с поправкой на солнечный нагрев. Характеристика знойности погоды. Зависит от высоты солнца над горизонтом, облачности и скорости ветра. Ночью, в пасмурную погоду, а также при ветре 12 м/с и более поправка равна нулю.
P - Атмосферное давление - приведенное к уровню моря атмосферное давление.
Po - Атмосферное давление - измеренное на уровне метеостанции атмосферное давление.
Tmin - Минимальная температура - минимум температуры воздуха на высоте 2 м над землей.
Tmax - Максимальная температура - максимум температуры воздуха на высоте 2 м над землей.
R - Количество осадков - Количество выпавших осадков за период времени, мм. При наведении курсора мыши на число - период времени, за который выпало указанное количество осадков.
R24 - Количество осадков - Количество выпавших осадков за 24 часа, мм.
S - Снежный покров - Высота снежного покрова, см. При наведении курсора мыши на число - состояние снежного покрова и степень покрытия местности в баллах.